Flag for Russia Weather past 2 weeks in Pyatigorsk, Russia

Now
46 °F

Partly sunny.


Feels Like: 42 °F
Forecast: 29 / 43 °F
Wind: 8 mph from South

Location: Mineral'Nye Vody

Current Time: Mar 5, 2015 at 11:24:37 AM

Latest Report: Mar 5, 2015 at 11:00 AM


Visibility: N/A

Pressure: 30.18 "Hg

Humidity: 50%

Dew point: 28 °F

Location of PyatigorskLocation

Historic Weather in Pyatigorsk — Graph

°F

Pyatigorsk temperature yesterday

Maximum temperature yesterday: 52 °F (at 2:00 PM)
Minimum temperature yesterday: 28 °F (at 7:30 AM)
Average temperature yesterday: 38 °F

Past Weeks' High & Low Weather Summary

 TemperatureHumidityPressure
High54 °F (Mar 1, 2:00 PM)100% (Feb 21, 11:00 PM)30.42 "Hg (Feb 21, 11:00 PM)
Low16 °F (Feb 18, 10:00 AM)52% (Feb 22, 4:00 PM)29.86 "Hg (Feb 28, 10:30 AM)
Average32 °F88%30.11 "Hg
* Reported Feb 18 10:00 AM — Mar 5 10:00 AM, Pyatigorsk, Weather by CustomWeather, © 2015

Note: Actual official high and low records may vary slightly from our data, if they occured in-between our weather recording intervals... More about our weather records

Advertising

Pyatigorsk weather history for previous 24 hours

 ConditionsComfort  
Time TempWeatherWind HumidityBarometerVisibility
10:00 AM
Thu, Mar 5
43 °FScattered clouds.3 mph66%30.18 "HgN/A
9:30 AM43 °FBroken clouds.10 mph71%30.18 "HgN/A
9:00 AM39 °FBroken clouds.10 mph75%30.18 "HgN/A
8:30 AM37 °FBroken clouds.3 mph87%30.18 "HgN/A
8:00 AM36 °FBroken clouds.1 mph87%30.18 "HgN/A
7:30 AM34 °FPartly cloudy.6 mph93%30.18 "HgN/A
7:00 AM34 °FPartly cloudy.6 mph93%30.15 "HgN/A
6:30 AM34 °FPassing clouds.1 mph87%30.15 "HgN/A
6:00 AM36 °FPassing clouds.3 mph87%30.15 "HgN/A
5:00 AM37 °FPartly cloudy.3 mph81%30.15 "HgN/A
4:30 AM37 °FPartly cloudy.1 mph81%30.12 "HgN/A
4:00 AM37 °FPartly cloudy.1 mph81%30.12 "HgN/A
3:30 AM37 °FPartly cloudy.1 mph81%30.12 "HgN/A
3:00 AM37 °FPassing clouds.3 mph81%30.09 "HgN/A
2:30 AM37 °FOvercast.8 mph81%30.09 "HgN/A
2:00 AM37 °FSprinkles. Overcast.8 mph87%30.09 "HgN/A
1:30 AM37 °FSprinkles. Passing clouds.13 mph81%30.12 "HgN/A
1:00 AM39 °FPartly cloudy.15 mph75%30.09 "HgN/A
12:00 AM39 °FPassing clouds.10 mph75%30.09 "HgN/A
11:30 PM
Wed, Mar 4
37 °FPassing clouds.10 mph87%30.09 "HgN/A
11:00 PM39 °FPassing clouds.10 mph81%30.09 "HgN/A
10:30 PM39 °FPartly cloudy.10 mph87%30.09 "HgN/A
10:00 PM39 °FPassing clouds.10 mph87%30.09 "HgN/A
9:30 PM39 °FMostly cloudy.13 mph87%30.09 "HgN/A
9:00 PM39 °FSprinkles. Mostly cloudy.13 mph93%30.09 "HgN/A
8:30 PM39 °FSprinkles. Mostly cloudy.10 mph93%30.09 "HgN/A
8:00 PM39 °FSprinkles. Mostly cloudy.13 mph93%30.07 "Hg4 mi
7:30 PM39 °FSprinkles. Mostly cloudy.17 mph87%30.07 "Hg4 mi
7:00 PM41 °FSprinkles. Mostly cloudy.24 mph87%30.07 "Hg2 mi
6:30 PM43 °FSprinkles. Mostly cloudy.13 mph81%30.01 "HgN/A
6:00 PM46 °FPartly sunny.3 mph71%29.98 "HgN/A
5:30 PM48 °FBroken clouds.3 mph66%29.95 "HgN/A
5:00 PM48 °FBroken clouds.6 mph66%29.95 "HgN/A
4:30 PM50 °FPartly sunny.6 mph62%29.92 "HgN/A
4:00 PM50 °FPartly sunny.8 mph62%29.92 "HgN/A
3:30 PM50 °FPartly sunny.6 mph58%29.89 "HgN/A
3:00 PM52 °FPartly sunny.10 mph62%29.89 "HgN/A
2:30 PM50 °FPartly sunny.10 mph62%29.89 "HgN/A
2:00 PM52 °FPartly sunny.10 mph62%29.89 "HgN/A
1:30 PM50 °FScattered clouds.10 mph67%29.89 "HgN/A
1:00 PM48 °FPassing clouds.8 mph82%29.89 "HgN/A
12:30 PM45 °FScattered clouds.6 mph87%29.89 "HgN/A
12:00 PM41 °FPartly sunny.6 mph87%29.92 "HgN/A
11:30 AM39 °FPartly sunny.6 mph93%29.92 "Hg4 mi
11:00 AM36 °FFog.8 mph100%29.92 "Hg2 mi
Weather by CustomWeather, © 2015

See weather overviewHow to use our weather pages